Jackson, KY

9:37 AM EDT on March 30, 2017 (GMT -0400)
Carroll

Weather History for KJKL - January, 2012

Change the Weather History Date:

Tuesday, January 3, 2012

  Actual Average Record
Temperature  
Mean Temperature 22 °F 35 °F  
Max Temperature 27 °F 43 °F 70 °F (2000)
Min Temperature 17 °F 27 °F 6 °F (2010)
Degree Days  
Heating Degree Days 43 30  
Month to date heating degree days 96 90  
Since 1 July heating degree days 1473 1724  
Cooling Degree Days 0 0  
Month to date cooling degree days 0 0  
Year to date cooling degree days 0 0  
Moisture  
Dew Point 11 °F    
Average Humidity 65    
Maximum Humidity 80    
Minimum Humidity 50    
Precipitation  
Precipitation T in 0.12 in 1.45 in (1982)
Month to date precipitation 0.02 0.35  
Year to date precipitation 0.02 0.35  
Snow  
Snow 0.30 in 0.20 in 1.40 in (1988)
Month to date snowfall 0.6 0.6  
Since 1 July snowfall 1.0 6.1  
Snow Depth 0.00 in    
Sea Level Pressure  
Sea Level Pressure 30.32 in    
Wind  
Wind Speed 6 mph (West)    
Max Wind Speed 15 mph    
Max Gust Speed 23 mph    
Visibility 8 miles    
Events Snow    
T = Trace of Precipitation, MM = Missing Value Source: NWS Daily Summary

Daily Weather History Graph

Daily Weather History Graph

Search for Another Location

Airport or City:

Trip Planner

Search our weather history database for the weather conditions in past years. The results will help you decide how hot, cold, wet, or windy it might be!

Date:

Astronomy

Jan. 03, 2012 Rise Set
Actual Time 7:48 AM EST 5:26 PM EST
Civil Twilight 7:19 AM EST 5:56 PM EST
Nautical Twilight 6:46 AM EST 6:28 PM EST
Astronomical Twilight 6:14 AM EST 7:00 PM EST
Moon 1:12 PM EST (1/3) 2:40 AM EST (1/3)
Length of Visible Light 10h 36m
Length of Day
9h 38m
Waxing Gibbous, 72% of the Moon is Illuminated
Jan 3
Waxing Gibbous
Jan 9
Full
Jan 16
Last Quarter
Jan 23
New
Jan 30
First Quarter

Hourly Weather History & Observations

Time (EST) Temp. Windchill Dew Point Humidity Pressure Visibility Wind Dir Wind Speed Gust Speed Precip Events Conditions
12:43 AM 17.6 °F 8.2 °F 12.2 °F 79% 30.21 in 2.0 mi WNW 6.9 mph - 0.00 in Snow Light Snow
12:53 AM 18.0 °F 7.7 °F 12.0 °F 78% 30.26 in 2.0 mi WNW 8.1 mph - 0.00 in Snow Light Snow
1:16 AM 17.6 °F 8.2 °F 12.2 °F 79% 30.21 in 1.5 mi West 6.9 mph - 0.00 in Snow Light Snow
1:22 AM 17.6 °F 6.4 °F 12.2 °F 79% 30.21 in 2.0 mi WNW 9.2 mph - 0.00 in Snow Light Snow
1:31 AM 17.6 °F 6.4 °F 12.2 °F 79% 30.22 in 5.0 mi WNW 9.2 mph 18.4 mph 0.00 in Snow Light Snow
1:53 AM 18.0 °F 8.7 °F 12.0 °F 78% 30.27 in 2.5 mi Variable 6.9 mph 17.3 mph 0.00 in Snow Light Snow
2:03 AM 17.6 °F 5.7 °F 12.2 °F 79% 30.23 in 1.8 mi WNW 10.4 mph - 0.00 in Snow Light Snow
2:12 AM 17.6 °F 7.3 °F 12.2 °F 79% 30.23 in 2.5 mi West 8.1 mph - 0.00 in Snow Light Snow
2:23 AM 17.6 °F 6.4 °F 12.2 °F 79% 30.23 in 2.0 mi West 9.2 mph - 0.00 in Snow Light Snow
2:45 AM 17.6 °F 7.3 °F 12.2 °F 79% 30.24 in 3.0 mi West 8.1 mph 18.4 mph 0.00 in Snow Light Snow
2:53 AM 17.1 °F 6.6 °F 12.0 °F 81% 30.29 in 6.0 mi WNW 8.1 mph - 0.00 in Snow Light Snow
3:28 AM 17.6 °F 8.2 °F 12.2 °F 79% 30.25 in 9.0 mi WNW 6.9 mph - 0.00 in Snow Light Snow
3:53 AM 18.0 °F 9.8 °F 10.9 °F 74% 30.30 in 10.0 mi Variable 5.8 mph - 0.00 in   Overcast
4:53 AM 18.0 °F 7.7 °F 10.9 °F 74% 30.32 in 10.0 mi WNW 8.1 mph - N/A   Overcast
5:53 AM 18.0 °F 7.7 °F 10.0 °F 71% 30.33 in 10.0 mi West 8.1 mph - N/A   Overcast
6:53 AM 18.0 °F 9.8 °F 10.0 °F 71% 30.37 in 10.0 mi Variable 5.8 mph - N/A   Overcast
7:53 AM 17.1 °F 10.0 °F 9.0 °F 71% 30.38 in 10.0 mi Variable 4.6 mph - N/A   Overcast
8:53 AM 17.6 °F 12.3 °F 8.6 °F 68% 30.33 in 10.0 mi Variable 3.5 mph - N/A   Overcast
9:53 AM 19.0 °F 11.1 °F 10.0 °F 68% 30.42 in 10.0 mi Variable 5.8 mph - N/A   Overcast
10:53 AM 21.9 °F 17.2 °F 12.0 °F 66% 30.42 in 10.0 mi Variable 3.5 mph - N/A   Overcast
11:45 AM 19.4 °F 8.6 °F 10.4 °F 68% 30.35 in 10.0 mi WNW 9.2 mph 16.1 mph N/A   Scattered Clouds
11:53 AM 19.9 °F 10.1 °F 10.9 °F 68% 30.40 in 10.0 mi WNW 8.1 mph 16.1 mph N/A   Mostly Cloudy
12:19 PM 19.4 °F 7.9 °F 8.6 °F 63% 30.33 in 10.0 mi West 10.4 mph 17.3 mph N/A   Scattered Clouds
12:53 PM 21.9 °F 13.4 °F 10.0 °F 60% 30.38 in 10.0 mi Variable 6.9 mph - N/A   Mostly Cloudy
1:53 PM 23.0 °F 11.7 °F 10.9 °F 60% 30.36 in 10.0 mi West 11.5 mph 17.3 mph N/A   Overcast
2:53 PM 24.1 °F 17.0 °F 10.9 °F 57% 30.36 in 10.0 mi Variable 5.8 mph 17.3 mph N/A   Overcast
3:53 PM 25.0 °F 16.3 °F 8.1 °F 49% 30.35 in 10.0 mi WNW 8.1 mph 19.6 mph N/A   Scattered Clouds
4:53 PM 24.8 °F 19.1 °F 8.6 °F 50% 30.31 in 10.0 mi West 4.6 mph - N/A   Partly Cloudy
5:53 PM 21.9 °F 14.5 °F 9.0 °F 58% 30.38 in 10.0 mi West 5.8 mph - N/A   Clear
6:53 PM 21.0 °F 16.2 °F 9.0 °F 60% 30.38 in 10.0 mi WSW 3.5 mph - N/A   Clear
7:53 PM 21.0 °F 16.2 °F 9.0 °F 60% 30.39 in 10.0 mi WSW 3.5 mph - N/A   Clear
8:53 PM 19.9 °F - 9.0 °F 62% 30.38 in 10.0 mi Calm Calm - N/A   Clear
9:53 PM 19.9 °F 14.9 °F 9.0 °F 62% 30.35 in 10.0 mi SSW 3.5 mph - N/A   Clear
10:53 PM 19.0 °F 13.9 °F 8.1 °F 62% 30.34 in 10.0 mi SSW 3.5 mph - N/A   Clear
11:53 PM 18.0 °F 12.7 °F 9.0 °F 68% 30.33 in 10.0 mi SW 3.5 mph - N/A   Clear